EW7038 Weather Reports


Display with metric or nautical units.
time (UTC)temp
F
wind
direction
speed
MPH
gust
MPH
rain 1hr
in
rain 24hr
in
rain mn
in
humidity
%
barometer
mb
20260504141303 63 299 14.0 25.0 0.00 0.00 0.00 50 1008.5
20260504140303 63 306 9.0 21.0 0.00 0.00 0.00 52 1008.5
20260504130803 56 114 1.0 3.0 0.00 0.00 0.00 64 1008.1
20260504120304 58 301 5.0 10.0 0.00 0.00 0.00 59 1007.8
20260504100303 59 218 1.0 1.0 0.00 0.00 0.00 57 1007.7
20260504081804 60 156 2.0 3.0 0.00 0.00 0.00 55 1007.7
20260504080303 60 163 3.0 3.0 0.00 0.00 0.00 55 1007.7
20260504070303 62 157 2.0 3.0 0.00 0.00 0.00 52 1007.6
20260504050303 71 115 1.0 1.0 0.00 0.00 0.00 37 1007.2
20260504045803 70 97 2.0 2.0 0.00 0.00 0.00 38 1007.1
20260504044803 68 167 2.0 3.0 0.00 0.00 0.00 41 1007.1
20260504044303 68 164 2.0 3.0 0.00 0.00 0.00 42 1007.0
20260504043803 68 160 2.0 3.0 0.00 0.00 0.00 42 1007.0
20260504043303 68 159 2.0 3.0 0.00 0.00 0.00 43 1006.9
20260504042803 69 157 3.0 3.0 0.00 0.00 0.00 42 1006.8
20260504041803 70 149 2.0 3.0 0.00 0.00 0.00 36 1006.6
20260504041303 71 153 2.0 3.0 0.00 0.00 0.00 38 1006.5
20260504040803 73 153 2.0 3.0 0.00 0.00 0.00 34 1006.4
20260504040303 74 147 2.0 3.0 0.00 0.00 0.00 31 1006.3
20260504035803 74 151 2.0 2.0 0.00 0.00 0.00 30 1006.3
20260504035304 74 148 2.0 2.0 0.00 0.00 0.00 30 1006.2
20260504034803 75 145 2.0 2.0 0.00 0.00 0.00 30 1006.1
20260504034303 76 150 2.0 2.0 0.00 0.00 0.00 29 1006.1
20260504033803 76 144 2.0 2.0 0.00 0.00 0.00 28 1006.0
20260504033303 77 137 1.0 2.0 0.00 0.00 0.00 28 1005.9
20260504032803 76 144 2.0 2.0 0.00 0.00 0.00 28 1005.8
20260504032304 76 145 2.0 2.0 0.00 0.00 0.00 28 1005.8
20260504031804 77 152 2.0 2.0 0.00 0.00 0.00 29 1005.8
20260504031303 78 144 2.0 2.0 0.00 0.00 0.00 27 1005.8
20260504030303 77 157 2.0 2.0 0.00 0.00 0.00 30 1005.8
20260504025803 78 150 2.0 2.0 0.00 0.00 0.00 28 1005.7
20260504024803 80 157 2.0 2.0 0.00 0.00 0.00 27 1005.7
20260504024304 81 140 1.0 1.0 0.00 0.00 0.00 26 1005.7
20260504023804 81 155 1.0 1.0 0.00 0.00 0.00 26 1005.7
20260504023303 82 141 1.0 1.0 0.00 0.00 0.00 26 1005.7
20260504022304 83 167 1.0 2.0 0.00 0.00 0.00 24 1005.7
20260504020303 85 135 1.0 2.0 0.00 0.00 0.00 23 1005.7
20260504015304 88 126 1.0 2.0 0.00 0.00 0.00 20 1005.8
20260504014803 89 111 0.0 1.0 0.00 0.00 0.00 20 1005.9
20260504014303 90 302 0.0 1.0 0.00 0.00 0.00 20 1005.9
20260504013803 90 342 1.0 1.0 0.00 0.00 0.00 20 1006.0
20260504013303 90 41 1.0 1.0 0.00 0.00 0.00 19 1006.0
20260504012803 90 337 1.0 1.0 0.00 0.00 0.00 19 1006.0
20260504012304 89 306 1.0 3.0 0.00 0.00 0.00 19 1006.1
20260504011804 89 26 1.0 1.0 0.00 0.00 0.00 19 1006.1
20260504011303 89 6 1.0 2.0 0.00 0.00 0.00 19 1006.2
20260504005804 89 167 1.0 2.0 0.00 0.00 0.00 19 1006.4
20260504005304 90 43 1.0 2.0 0.00 0.00 0.00 19 1006.4
20260504004803 89 306 1.0 2.0 0.00 0.00 0.00 19 1006.5
20260504004303 89 5 1.0 2.0 0.00 0.00 0.00 19 1006.5
20260504003303 89 105 1.0 3.0 0.00 0.00 0.00 19 1006.5
20260504001803 89 356 1.0 2.0 0.00 0.00 0.00 19 1006.7
20260504001303 89 34 1.0 6.0 0.00 0.00 0.00 20 1006.7
20260504000803 89 351 1.0 5.0 0.00 0.00 0.00 19 1006.8
20260504000303 89 23 1.0 3.0 0.00 0.00 0.00 19 1006.8
20260503235803 90 118 1.0 3.0 0.00 0.00 0.00 19 1006.8
20260503235304 89 317 1.0 3.0 0.00 0.00 0.00 19 1006.9
20260503234804 89 75 1.0 5.0 0.00 0.00 0.00 19 1006.9
20260503233803 88 12 1.0 7.0 0.00 0.00 0.00 19 1007.0
20260503233303 89 43 2.0 3.0 0.00 0.00 0.00 19 1007.1
20260503232803 89 353 1.0 2.0 0.00 0.00 0.00 19 1007.2
20260503232305 89 345 1.0 2.0 0.00 0.00 0.00 19 1007.2
20260503231803 89 23 1.0 2.0 0.00 0.00 0.00 18 1007.3
20260503231303 88 63 2.0 5.0 0.00 0.00 0.00 18 1007.4
20260503230803 88 59 2.0 5.0 0.00 0.00 0.00 19 1007.5
20260503225804 88 7 2.0 3.0 0.00 0.00 0.00 19 1007.7
20260503225304 88 5 1.0 2.0 0.00 0.00 0.00 19 1007.9
20260503224803 88 11 2.0 3.0 0.00 0.00 0.00 19 1007.8
20260503224304 88 38 2.0 3.0 0.00 0.00 0.00 19 1007.9
20260503223803 88 30 3.0 5.0 0.00 0.00 0.00 18 1008.0
20260503222803 89 49 2.0 3.0 0.00 0.00 0.00 19 1008.2
20260503222304 88 348 1.0 3.0 0.00 0.00 0.00 20 1008.2
20260503221803 87 12 1.0 2.0 0.00 0.00 0.00 20 1008.4
20260503221303 86 322 2.0 6.0 0.00 0.00 0.00 20 1008.5
20260503220803 87 76 2.0 7.0 0.00 0.00 0.00 19 1008.6
20260503220303 87 33 1.0 3.0 0.00 0.00 0.00 20 1008.7
20260503215804 87 90 2.0 5.0 0.00 0.00 0.00 18 1008.8
20260503215304 86 30 1.0 3.0 0.00 0.00 0.00 21 1008.8
20260503214803 86 34 2.0 3.0 0.00 0.00 0.00 20 1008.9
20260503214303 86 332 1.0 5.0 0.00 0.00 0.00 21 1008.9
20260503213803 85 24 1.0 5.0 0.00 0.00 0.00 22 1009.0
20260503213303 85 61 2.0 3.0 0.00 0.00 0.00 22 1009.1
20260503212803 84 87 2.0 5.0 0.00 0.00 0.00 21 1009.2
20260503212305 84 33 2.0 5.0 0.00 0.00 0.00 22 1009.2
20260503211803 84 347 2.0 7.0 0.00 0.00 0.00 22 1009.3
20260503210803 83 22 2.0 5.0 0.00 0.00 0.00 24 1009.5
20260503210304 83 355 2.0 5.0 0.00 0.00 0.00 24 1009.5
20260503205804 83 0 2.0 7.0 0.00 0.00 0.00 24 1009.6
20260503205304 83 18 2.0 3.0 0.00 0.00 0.00 25 1009.6
20260503204803 83 330 1.0 2.0 0.00 0.00 0.00 25 1009.8
20260503204304 84 120 1.0 3.0 0.00 0.00 0.00 25 1009.8
20260503203803 83 349 1.0 2.0 0.00 0.00 0.00 25 1009.9
20260503203303 83 7 2.0 3.0 0.00 0.00 0.00 25 1010.0
20260503202804 82 21 2.0 3.0 0.00 0.00 0.00 25 1010.0
20260503201804 82 28 2.0 3.0 0.00 0.00 0.00 26 1010.1
20260503201304 82 23 2.0 3.0 0.00 0.00 0.00 25 1010.2
20260503200803 82 9 2.0 3.0 0.00 0.00 0.00 24 1010.3
20260503200304 82 10 1.0 3.0 0.00 0.00 0.00 24 1010.3
20260503195803 81 351 2.0 5.0 0.00 0.00 0.00 24 1010.5
20260503195305 81 23 2.0 5.0 0.00 0.00 0.00 24 1010.5
20260503194803 80 5 2.0 3.0 0.00 0.00 0.00 24 1010.6
20260503194304 79 28 2.0 3.0 0.00 0.00 0.00 26 1010.7
20260503193803 79 22 2.0 3.0 0.00 0.00 0.00 27 1010.7
20260503193303 80 45 2.0 3.0 0.00 0.00 0.00 28 1010.8
20260503192804 79 354 1.0 3.0 0.00 0.00 0.00 28 1010.8
20260503192305 78 353 2.0 3.0 0.00 0.00 0.00 30 1010.9
20260503191804 77 2 1.0 2.0 0.00 0.00 0.00 30 1011.0
20260503191303 76 8 2.0 3.0 0.00 0.00 0.00 31 1011.1
20260503190804 77 31 1.0 3.0 0.00 0.00 0.00 31 1011.1
20260503185803 76 20 2.0 3.0 0.00 0.00 0.00 34 1011.2
20260503185304 75 3 2.0 3.0 0.00 0.00 0.00 33 1011.3
20260503184304 75 19 1.0 3.0 0.00 0.00 0.00 34 1011.4
20260503183304 74 26 2.0 3.0 0.00 0.00 0.00 34 1011.5
20260503182803 73 49 2.0 3.0 0.00 0.00 0.00 35 1011.6
20260503182305 73 22 2.0 3.0 0.00 0.00 0.00 37 1011.6
20260503181304 72 19 2.0 3.0 0.00 0.00 0.00 39 1011.7
20260503180803 72 22 2.0 3.0 0.00 0.00 0.00 39 1011.7
20260503180303 71 2 2.0 3.0 0.00 0.00 0.00 38 1011.9
20260503175803 71 65 1.0 2.0 0.00 0.00 0.00 41 1012.0
20260503175305 70 18 1.0 3.0 0.00 0.00 0.00 41 1012.0
20260503174804 70 52 2.0 3.0 0.00 0.00 0.00 40 1012.0
20260503174304 68 29 2.0 3.0 0.00 0.00 0.00 44 1012.1
20260503173804 67 35 2.0 3.0 0.00 0.00 0.00 47 1012.2
20260503173304 67 27 2.0 3.0 0.00 0.00 0.00 48 1012.2
20260503172803 66 25 2.0 3.0 0.00 0.00 0.00 49 1012.2
20260503172305 65 17 2.0 3.0 0.00 0.00 0.00 49 1012.3
20260503171803 65 22 2.0 3.0 0.00 0.00 0.00 50 1012.3
20260503171303 65 33 2.0 3.0 0.00 0.00 0.00 50 1012.3
20260503170804 65 21 2.0 3.0 0.00 0.00 0.00 49 1012.3
20260503150803 60 97 1.0 2.0 0.00 0.00 0.00 58 1013.2
20260503150303 60 104 2.0 3.0 0.00 0.00 0.00 59 1013.2